| time (UTC) | temp F | wind direction | speed MPH | gust MPH | rain 1hr in | rain 24hr in | rain mn in | humidity % | barometer mb |
| 20260505183021 | 52 | 348 | 12.0 | 17.0 | 0.00 | 0.39 | 0.39 | 76 | 1009.8 |
| 20260505182517 | 52 | 31 | 11.0 | 14.0 | 0.00 | 0.39 | 0.39 | 76 | 1009.7 |
| 20260505182014 | 52 | 14 | 7.0 | 9.0 | 0.00 | 0.39 | 0.39 | 77 | 1009.8 |
| 20260505181511 | 52 | 4 | 7.0 | 10.0 | 0.00 | 0.39 | 0.39 | 78 | 1009.6 |
| 20260505181008 | 52 | 16 | 5.0 | 6.0 | 0.00 | 0.39 | 0.39 | 79 | 1009.6 |
| 20260505180504 | 52 | 0 | 7.0 | 9.0 | 0.00 | 0.39 | 0.39 | 80 | 1009.4 |
| 20260505180001 | 52 | 13 | 4.0 | 6.0 | 0.00 | 0.39 | 0.39 | 80 | 1009.5 |
| 20260505175457 | 52 | 23 | 5.0 | 9.0 | 0.00 | 0.39 | 0.39 | 79 | 1009.5 |
| 20260505174954 | 53 | 34 | 7.0 | 9.0 | 0.00 | 0.39 | 0.39 | 79 | 1009.5 |
| 20260505174451 | 53 | 356 | 6.0 | 8.0 | 0.00 | 0.39 | 0.39 | 79 | 1009.3 |
| 20260505173947 | 53 | 69 | 11.0 | 13.0 | 0.00 | 0.39 | 0.39 | 78 | 1009.2 |
| 20260505173443 | 53 | 23 | 7.0 | 11.0 | 0.00 | 0.39 | 0.39 | 79 | 1009.4 |
| 20260505172940 | 53 | 76 | 4.0 | 7.0 | 0.00 | 0.39 | 0.39 | 79 | 1009.0 |
| 20260505172439 | 53 | 90 | 6.0 | 11.0 | 0.00 | 0.39 | 0.39 | 80 | 1008.9 |
| 20260505171938 | 53 | 14 | 5.0 | 9.0 | 0.00 | 0.39 | 0.39 | 80 | 1008.9 |
| 20260505171435 | 53 | 29 | 3.0 | 3.0 | 0.00 | 0.39 | 0.39 | 80 | 1008.7 |
| 20260505170932 | 53 | 32 | 8.0 | 14.0 | 0.00 | 0.39 | 0.39 | 80 | 1008.9 |
| 20260505170428 | 53 | 16 | 4.0 | 7.0 | 0.00 | 0.39 | 0.39 | 80 | 1008.9 |
| 20260505165924 | 53 | 25 | 7.0 | 10.0 | 0.00 | 0.39 | 0.39 | 80 | 1009.0 |
| 20260505165420 | 53 | 19 | 7.0 | 13.0 | 0.00 | 0.39 | 0.39 | 80 | 1008.8 |
| 20260505164915 | 53 | 354 | 3.0 | 4.0 | 0.00 | 0.39 | 0.39 | 80 | 1009.0 |
| 20260505164413 | 53 | 350 | 8.0 | 10.0 | 0.00 | 0.39 | 0.39 | 80 | 1009.0 |
| 20260505163910 | 53 | 42 | 4.0 | 6.0 | 0.00 | 0.39 | 0.39 | 80 | 1009.3 |
| 20260505163409 | 53 | 34 | 5.0 | 6.0 | 0.00 | 0.39 | 0.39 | 80 | 1009.3 |
| 20260505162908 | 54 | 1 | 6.0 | 10.0 | 0.00 | 0.39 | 0.39 | 81 | 1009.1 |
| 20260505162403 | 54 | 28 | 9.0 | 11.0 | 0.00 | 0.39 | 0.39 | 80 | 1008.9 |
| 20260505161900 | 54 | 302 | 5.0 | 9.0 | 0.00 | 0.39 | 0.39 | 81 | 1009.0 |
| 20260505161357 | 54 | 16 | 6.0 | 8.0 | 0.00 | 0.39 | 0.39 | 80 | 1009.0 |
| 20260505160854 | 54 | 341 | 5.0 | 8.0 | 0.00 | 0.39 | 0.39 | 80 | 1008.8 |
| 20260505160353 | 54 | 25 | 5.0 | 7.0 | 0.00 | 0.39 | 0.39 | 81 | 1008.8 |
| 20260505153331 | 53 | 28 | 8.0 | 15.0 | 0.00 | 0.39 | 0.39 | 85 | 1008.7 |
| 20260505152828 | 53 | 359 | 6.0 | 8.0 | 0.00 | 0.39 | 0.39 | 86 | 1009.0 |
| 20260505152325 | 53 | 33 | 6.0 | 11.0 | 0.00 | 0.39 | 0.39 | 87 | 1008.7 |
| 20260505151820 | 53 | 6 | 6.0 | 8.0 | 0.00 | 0.39 | 0.39 | 87 | 1009.0 |
| 20260505151317 | 53 | 42 | 7.0 | 10.0 | 0.00 | 0.39 | 0.39 | 88 | 1009.2 |
| 20260505150814 | 53 | 29 | 10.0 | 13.0 | 0.00 | 0.39 | 0.39 | 88 | 1009.2 |
| 20260505150311 | 53 | 8 | 11.0 | 13.0 | 0.00 | 0.39 | 0.39 | 88 | 1009.0 |
| 20260505140241 | 54 | 52 | 5.0 | 7.0 | 0.00 | 0.39 | 0.39 | 90 | 1006.9 |
| 20260505130204 | 55 | 348 | 9.0 | 13.0 | 0.00 | 0.39 | 0.39 | 89 | 1008.0 |
| 20260505124654 | 56 | 350 | 5.0 | 8.0 | 0.00 | 0.39 | 0.39 | 89 | 1007.2 |
| 20260505124151 | 56 | 44 | 6.0 | 8.0 | 0.00 | 0.39 | 0.39 | 89 | 1007.3 |
| 20260505123647 | 56 | 17 | 3.0 | 4.0 | 0.00 | 0.39 | 0.39 | 89 | 1006.9 |
| 20260505123144 | 56 | 27 | 5.0 | 7.0 | 0.00 | 0.39 | 0.39 | 89 | 1007.1 |
| 20260505122640 | 56 | 39 | 4.0 | 4.0 | 0.00 | 0.39 | 0.39 | 89 | 1007.1 |
| 20260505122138 | 57 | 351 | 4.0 | 7.0 | 0.00 | 0.39 | 0.39 | 89 | 1007.1 |
| 20260505121634 | 57 | 28 | 4.0 | 7.0 | 0.00 | 0.39 | 0.39 | 89 | 1006.9 |
| 20260505121131 | 57 | 47 | 2.0 | 3.0 | 0.00 | 0.39 | 0.39 | 88 | 1006.6 |
| 20260505120627 | 57 | 4 | 3.0 | 3.0 | 0.00 | 0.39 | 0.39 | 89 | 1006.5 |
| 20260505120123 | 57 | 59 | 2.0 | 2.0 | 0.00 | 0.39 | 0.39 | 89 | 1006.3 |
| 20260505115618 | 58 | 3 | 3.0 | 4.0 | 0.00 | 0.39 | 0.39 | 89 | 1006.1 |
| 20260505115115 | 58 | 359 | 4.0 | 6.0 | 0.00 | 0.39 | 0.39 | 89 | 1006.2 |
| 20260505114612 | 58 | 24 | 1.0 | 2.0 | 0.00 | 0.39 | 0.39 | 89 | 1006.3 |
| 20260505114109 | 58 | 18 | 8.0 | 10.0 | 0.00 | 0.39 | 0.39 | 89 | 1006.2 |
| 20260505113605 | 59 | 13 | 3.0 | 6.0 | 0.00 | 0.39 | 0.39 | 90 | 1006.5 |
| 20260505113102 | 59 | 17 | 1.0 | 2.0 | 0.00 | 0.39 | 0.39 | 91 | 1006.1 |
| 20260505112558 | 59 | 48 | 3.0 | 4.0 | 0.00 | 0.39 | 0.39 | 91 | 1006.0 |
| 20260505112057 | 59 | 2 | 1.0 | 1.0 | 0.00 | 0.39 | 0.39 | 91 | 1005.7 |
| 20260505111556 | 59 | 21 | 4.0 | 6.0 | 0.00 | 0.39 | 0.39 | 91 | 1005.5 |
| 20260505111052 | 60 | 12 | 2.0 | 3.0 | 0.00 | 0.39 | 0.39 | 92 | 1005.7 |
| 20260505110549 | 60 | 82 | 4.0 | 4.0 | 0.00 | 0.39 | 0.39 | 93 | 1005.8 |
| 20260505102021 | 61 | 21 | 1.0 | 1.0 | 0.00 | 0.39 | 0.39 | 93 | 1005.6 |
| 20260505101520 | 61 | 5 | 4.0 | 6.0 | 0.00 | 0.39 | 0.39 | 93 | 1005.9 |
| 20260505101015 | 61 | 23 | 1.0 | 1.0 | 0.00 | 0.39 | 0.39 | 93 | 1006.0 |
| 20260505100513 | 61 | 21 | 1.0 | 2.0 | 0.00 | 0.39 | 0.39 | 93 | 1006.1 |
| 20260505100010 | 61 | 28 | 0.0 | 1.0 | 0.00 | 0.39 | 0.39 | 93 | 1006.1 |
| 20260505095506 | 61 | 14 | 2.0 | 2.0 | 0.00 | 0.39 | 0.39 | 93 | 1006.6 |
| 20260505095001 | 61 | 16 | 2.0 | 2.0 | 0.07 | 0.39 | 0.39 | 92 | 1006.4 |
| 20260505094459 | 62 | 111 | 2.0 | 3.0 | 0.07 | 0.39 | 0.39 | 92 | 1005.9 |
| 20260505093955 | 62 | 338 | 6.0 | 8.0 | 0.00 | 0.38 | 0.38 | 91 | 1006.0 |
| 20260505093451 | 62 | 25 | 0.0 | 0.0 | 0.00 | 0.38 | 0.38 | 91 | 1005.2 |
| 20260505092949 | 62 | 44 | 1.0 | 2.0 | 0.00 | 0.38 | 0.38 | 91 | 1005.2 |
| 20260505092446 | 62 | 68 | 2.0 | 2.0 | 0.00 | 0.38 | 0.38 | 91 | 1005.3 |
| 20260505091944 | 62 | 108 | 4.0 | 6.0 | 0.00 | 0.38 | 0.38 | 91 | 1005.0 |
| 20260505091441 | 62 | 193 | 5.0 | 7.0 | 0.00 | 0.38 | 0.38 | 92 | 1004.6 |
| 20260505090939 | 62 | 136 | 2.0 | 3.0 | 0.00 | 0.38 | 0.38 | 92 | 1004.5 |
| 20260505090437 | 62 | 218 | 4.0 | 7.0 | 0.00 | 0.38 | 0.38 | 91 | 1004.6 |
| 20260505085934 | 62 | 168 | 4.0 | 4.0 | 0.05 | 0.38 | 0.38 | 92 | 1005.0 |
| 20260505085431 | 62 | 119 | 2.0 | 3.0 | 0.12 | 0.38 | 0.38 | 92 | 1005.1 |
| 20260505084930 | 62 | 176 | 2.0 | 3.0 | 0.07 | 0.37 | 0.37 | 92 | 1005.3 |
| 20260505084428 | 62 | 210 | 2.0 | 3.0 | 0.07 | 0.37 | 0.37 | 92 | 1005.4 |
| 20260505083926 | 62 | 212 | 7.0 | 9.0 | 0.00 | 0.36 | 0.36 | 92 | 1005.3 |
| 20260505083423 | 62 | 173 | 4.0 | 4.0 | 0.00 | 0.36 | 0.36 | 92 | 1005.2 |
| 20260505082919 | 62 | 192 | 5.0 | 7.0 | 0.00 | 0.36 | 0.36 | 92 | 1004.8 |
| 20260505082415 | 62 | 157 | 4.0 | 6.0 | 0.00 | 0.36 | 0.36 | 92 | 1004.4 |
| 20260505081912 | 62 | 90 | 5.0 | 9.0 | 0.00 | 0.36 | 0.36 | 92 | 1004.5 |
| 20260505081408 | 62 | 118 | 5.0 | 7.0 | 0.00 | 0.36 | 0.36 | 93 | 1004.4 |
| 20260505080905 | 62 | 60 | 3.0 | 3.0 | 0.00 | 0.36 | 0.36 | 94 | 1004.4 |
| 20260505080401 | 62 | 211 | 6.0 | 10.0 | 0.00 | 0.36 | 0.36 | 94 | 1004.3 |
| 20260505075857 | 62 | 176 | 7.0 | 9.0 | 0.00 | 0.36 | 0.36 | 94 | 1003.6 |
| 20260505075354 | 62 | 106 | 6.0 | 8.0 | 0.05 | 0.36 | 0.36 | 94 | 1003.6 |
| 20260505074851 | 62 | 189 | 6.0 | 6.0 | 0.05 | 0.36 | 0.36 | 95 | 1004.1 |
| 20260505074348 | 62 | 154 | 10.0 | 15.0 | 0.05 | 0.36 | 0.36 | 95 | 1004.0 |
| 20260505073845 | 62 | 127 | 7.0 | 10.0 | 0.00 | 0.35 | 0.35 | 95 | 1004.7 |
| 20260505073343 | 62 | 142 | 6.0 | 10.0 | 0.00 | 0.35 | 0.35 | 95 | 1004.8 |
| 20260505072840 | 62 | 194 | 5.0 | 7.0 | 0.00 | 0.35 | 0.35 | 95 | 1005.1 |
| 20260505072336 | 62 | 171 | 5.0 | 9.0 | 0.00 | 0.35 | 0.35 | 95 | 1005.4 |
| 20260505071832 | 62 | 79 | 5.0 | 7.0 | 0.07 | 0.35 | 0.35 | 95 | 1006.3 |
| 20260505071329 | 62 | 73 | 2.0 | 3.0 | 0.12 | 0.35 | 0.35 | 94 | 1006.8 |
| 20260505070827 | 62 | 107 | 2.0 | 3.0 | 0.17 | 0.34 | 0.34 | 94 | 1006.6 |
| 20260505070323 | 62 | 247 | 3.0 | 4.0 | 0.38 | 0.33 | 0.33 | 94 | 1007.3 |
| 20260505065818 | 62 | 128 | 4.0 | 7.0 | 0.38 | 0.31 | 0.31 | 93 | 1007.1 |
| 20260505065316 | 62 | 209 | 3.0 | 4.0 | 0.31 | 0.28 | 0.28 | 93 | 1008.0 |
| 20260505064813 | 62 | 183 | 2.0 | 2.0 | 0.28 | 0.25 | 0.25 | 93 | 1007.9 |
| 20260505064310 | 62 | 13 | 0.0 | 1.0 | 0.28 | 0.23 | 0.23 | 92 | 1007.8 |
| 20260505063808 | 62 | 304 | 3.0 | 4.0 | 0.35 | 0.21 | 0.21 | 91 | 1007.9 |
| 20260505063304 | 62 | 225 | 4.0 | 6.0 | 0.38 | 0.18 | 0.18 | 91 | 1007.9 |
| 20260505062800 | 63 | 275 | 5.0 | 7.0 | 0.35 | 0.15 | 0.15 | 90 | 1008.0 |
| 20260505062258 | 63 | 196 | 7.0 | 9.0 | 0.24 | 0.12 | 0.12 | 88 | 1008.3 |
| 20260505061754 | 63 | 259 | 4.0 | 6.0 | 0.19 | 0.09 | 0.09 | 87 | 1007.7 |
| 20260505061252 | 64 | 266 | 4.0 | 4.0 | 0.31 | 0.08 | 0.08 | 85 | 1007.0 |
| 20260505060750 | 64 | 171 | 5.0 | 6.0 | 0.31 | 0.06 | 0.06 | 82 | 1006.8 |
| 20260505060247 | 66 | 293 | 3.0 | 3.0 | 0.17 | 0.03 | 0.03 | 79 | 1006.6 |
| 20260505055742 | 67 | 125 | 8.0 | 9.0 | 0.05 | 0.01 | 0.01 | 76 | 1006.2 |
| 20260505055238 | 67 | 200 | 9.0 | 10.0 | 0.05 | 0.01 | 0.01 | 72 | 1006.0 |
| 20260505054736 | 68 | 129 | 6.0 | 9.0 | 0.00 | 0.00 | 0.00 | 69 | 1005.4 |
| 20260505054234 | 69 | 192 | 5.0 | 6.0 | 0.00 | 0.00 | 0.00 | 68 | 1005.4 |
| 20260505053732 | 69 | 171 | 6.0 | 8.0 | 0.00 | 0.00 | 0.00 | 66 | 1005.5 |
| 20260505053228 | 69 | 167 | 3.0 | 4.0 | 0.00 | 0.00 | 0.00 | 65 | 1005.5 |
| 20260505052725 | 69 | 148 | 3.0 | 4.0 | 0.00 | 0.00 | 0.00 | 64 | 1005.2 |
| 20260505052222 | 69 | 89 | 2.0 | 2.0 | 0.00 | 0.00 | 0.00 | 64 | 1005.2 |
| 20260505051719 | 69 | 176 | 3.0 | 4.0 | 0.00 | 0.00 | 0.00 | 64 | 1005.4 |
| 20260505051217 | 69 | 170 | 2.0 | 2.0 | 0.00 | 0.00 | 0.00 | 64 | 1005.4 |
| 20260505050715 | 69 | 84 | 4.0 | 7.0 | 0.00 | 0.00 | 0.00 | 65 | 1005.5 |
| 20260505050213 | 69 | 143 | 6.0 | 8.0 | 0.00 | 0.00 | 0.00 | 65 | 1005.5 |
| 20260505041648 | 69 | 172 | 5.0 | 6.0 | 0.00 | 0.00 | 0.00 | 65 | 1005.5 |
| 20260505041146 | 69 | 176 | 4.0 | 6.0 | 0.00 | 0.00 | 0.00 | 65 | 1005.3 |
| 20260505040643 | 69 | 138 | 3.0 | 4.0 | 0.00 | 0.00 | 0.00 | 65 | 1005.5 |
| 20260505040140 | 69 | 108 | 2.0 | 2.0 | 0.00 | 0.00 | 0.00 | 65 | 1005.3 |
| 20260505035636 | 69 | 108 | 4.0 | 4.0 | 0.00 | 0.00 | 0.00 | 64 | 1005.5 |
| 20260505035132 | 69 | 152 | 2.0 | 2.0 | 0.00 | 0.00 | 0.00 | 64 | 1005.9 |
| 20260505034629 | 69 | 84 | 2.0 | 2.0 | 0.00 | 0.00 | 0.00 | 64 | 1006.2 |
| 20260505034126 | 70 | 228 | 6.0 | 8.0 | 0.00 | 0.00 | 0.00 | 64 | 1006.2 |
| 20260505033622 | 70 | 117 | 4.0 | 4.0 | 0.00 | 0.00 | 0.00 | 63 | 1006.1 |
| 20260505033121 | 70 | 189 | 7.0 | 9.0 | 0.00 | 0.00 | 0.00 | 63 | 1005.9 |
| 20260505032619 | 70 | 218 | 4.0 | 4.0 | 0.00 | 0.00 | 0.00 | 63 | 1006.0 |
| 20260505032115 | 70 | 166 | 5.0 | 7.0 | 0.00 | 0.00 | 0.00 | 63 | 1006.0 |
| 20260505031612 | 70 | 310 | 3.0 | 4.0 | 0.00 | 0.00 | 0.00 | 63 | 1006.0 |
| 20260505031108 | 70 | 191 | 5.0 | 8.0 | 0.00 | 0.00 | 0.00 | 62 | 1005.9 |
| 20260505030605 | 71 | 117 | 2.0 | 2.0 | 0.00 | 0.00 | 0.00 | 62 | 1005.7 |
| 20260505025557 | 71 | 255 | 3.0 | 3.0 | 0.00 | 0.00 | 0.00 | 61 | 1005.9 |
| 20260505025056 | 71 | 90 | 4.0 | 6.0 | 0.00 | 0.00 | 0.00 | 61 | 1005.9 |
| 20260505024553 | 71 | 73 | 2.0 | 2.0 | 0.00 | 0.00 | 0.00 | 60 | 1005.8 |
| 20260505024050 | 71 | 50 | 1.0 | 1.0 | 0.00 | 0.00 | 0.00 | 60 | 1005.9 |
| 20260505023547 | 71 | 132 | 5.0 | 7.0 | 0.00 | 0.00 | 0.00 | 59 | 1005.9 |
| 20260505023045 | 71 | 197 | 5.0 | 8.0 | 0.00 | 0.00 | 0.00 | 59 | 1005.7 |
| 20260505022542 | 72 | 113 | 2.0 | 2.0 | 0.00 | 0.00 | 0.00 | 59 | 1005.7 |
| 20260505022039 | 72 | 108 | 6.0 | 8.0 | 0.00 | 0.00 | 0.00 | 58 | 1005.9 |
| 20260505021536 | 72 | 142 | 4.0 | 6.0 | 0.00 | 0.00 | 0.00 | 58 | 1005.8 |
| 20260505021033 | 72 | 129 | 4.0 | 4.0 | 0.00 | 0.00 | 0.00 | 58 | 1005.7 |
| 20260505020532 | 72 | 118 | 4.0 | 6.0 | 0.00 | 0.00 | 0.00 | 58 | 1005.9 |
| 20260505020030 | 72 | 139 | 3.0 | 3.0 | 0.00 | 0.00 | 0.00 | 58 | 1005.6 |
| 20260505015527 | 72 | 146 | 4.0 | 4.0 | 0.00 | 0.00 | 0.00 | 57 | 1005.5 |
| 20260505015023 | 72 | 200 | 3.0 | 4.0 | 0.00 | 0.00 | 0.00 | 58 | 1005.5 |
| 20260505014520 | 72 | 167 | 4.0 | 6.0 | 0.00 | 0.00 | 0.00 | 57 | 1005.5 |
| 20260505014018 | 72 | 102 | 4.0 | 6.0 | 0.00 | 0.00 | 0.00 | 57 | 1005.5 |
| 20260505013515 | 72 | 172 | 4.0 | 4.0 | 0.00 | 0.00 | 0.00 | 57 | 1005.6 |
| 20260505013012 | 73 | 183 | 3.0 | 4.0 | 0.00 | 0.00 | 0.00 | 58 | 1005.6 |
| 20260505012510 | 73 | 163 | 5.0 | 7.0 | 0.00 | 0.00 | 0.00 | 57 | 1005.4 |
| 20260505012007 | 73 | 179 | 4.0 | 4.0 | 0.00 | 0.00 | 0.00 | 57 | 1005.2 |
| 20260505011502 | 73 | 44 | 1.0 | 1.0 | 0.00 | 0.00 | 0.00 | 57 | 1005.4 |
| 20260505011000 | 73 | 176 | 3.0 | 4.0 | 0.00 | 0.00 | 0.00 | 56 | 1005.5 |
| 20260505010455 | 73 | 146 | 4.0 | 6.0 | 0.00 | 0.00 | 0.00 | 55 | 1005.6 |
| 20260505005951 | 74 | 227 | 6.0 | 8.0 | 0.00 | 0.00 | 0.00 | 55 | 1005.5 |
| 20260505005448 | 74 | 124 | 6.0 | 7.0 | 0.00 | 0.00 | 0.00 | 54 | 1005.4 |
| 20260505004946 | 74 | 225 | 5.0 | 7.0 | 0.00 | 0.00 | 0.00 | 54 | 1005.4 |
| 20260505004442 | 74 | 161 | 4.0 | 4.0 | 0.00 | 0.00 | 0.00 | 54 | 1005.1 |
| 20260505003939 | 74 | 71 | 3.0 | 4.0 | 0.00 | 0.00 | 0.00 | 54 | 1005.1 |
| 20260505003436 | 75 | 204 | 5.0 | 7.0 | 0.00 | 0.00 | 0.00 | 54 | 1005.1 |
| 20260505002932 | 75 | 217 | 7.0 | 10.0 | 0.00 | 0.00 | 0.00 | 53 | 1005.1 |
| 20260505002429 | 75 | 202 | 7.0 | 10.0 | 0.00 | 0.00 | 0.00 | 53 | 1005.4 |
| 20260505001927 | 75 | 202 | 8.0 | 10.0 | 0.00 | 0.00 | 0.00 | 52 | 1005.2 |
| 20260505001425 | 75 | 228 | 9.0 | 11.0 | 0.00 | 0.00 | 0.00 | 52 | 1005.3 |
| 20260505000922 | 76 | 205 | 4.0 | 4.0 | 0.00 | 0.00 | 0.00 | 52 | 1005.2 |
| 20260505000420 | 76 | 182 | 5.0 | 6.0 | 0.00 | 0.00 | 0.00 | 51 | 1004.8 |
| 20260504235916 | 76 | 263 | 6.0 | 8.0 | 0.00 | 0.00 | 0.00 | 51 | 1004.9 |
| 20260504235414 | 76 | 238 | 5.0 | 7.0 | 0.00 | 0.00 | 0.00 | 50 | 1005.0 |
| 20260504234909 | 76 | 170 | 7.0 | 10.0 | 0.00 | 0.00 | 0.00 | 50 | 1005.0 |
| 20260504234407 | 77 | 228 | 11.0 | 14.0 | 0.00 | 0.00 | 0.00 | 50 | 1004.8 |
| 20260504233903 | 77 | 230 | 5.0 | 6.0 | 0.00 | 0.00 | 0.00 | 50 | 1004.8 |
| 20260504233359 | 77 | 155 | 5.0 | 7.0 | 0.00 | 0.00 | 0.00 | 50 | 1004.9 |
| 20260504232856 | 77 | 127 | 4.0 | 6.0 | 0.00 | 0.00 | 0.00 | 50 | 1004.8 |
| 20260504232353 | 77 | 248 | 4.0 | 6.0 | 0.00 | 0.00 | 0.00 | 49 | 1004.8 |
| 20260504231850 | 78 | 38 | 6.0 | 8.0 | 0.00 | 0.00 | 0.00 | 48 | 1005.0 |
| 20260504231346 | 78 | 136 | 7.0 | 9.0 | 0.00 | 0.00 | 0.00 | 47 | 1004.9 |
| 20260504230843 | 78 | 203 | 11.0 | 14.0 | 0.00 | 0.00 | 0.00 | 47 | 1005.1 |
| 20260504230340 | 78 | 258 | 8.0 | 10.0 | 0.00 | 0.00 | 0.00 | 47 | 1005.1 |
| 20260504225839 | 79 | 206 | 8.0 | 11.0 | 0.00 | 0.00 | 0.00 | 47 | 1004.9 |
| 20260504225335 | 79 | 73 | 5.0 | 7.0 | 0.00 | 0.00 | 0.00 | 47 | 1005.0 |
| 20260504224833 | 79 | 166 | 6.0 | 8.0 | 0.00 | 0.00 | 0.00 | 47 | 1004.9 |
| 20260504224329 | 79 | 132 | 4.0 | 6.0 | 0.00 | 0.00 | 0.00 | 47 | 1004.7 |
| 20260504223826 | 79 | 242 | 6.0 | 9.0 | 0.00 | 0.00 | 0.00 | 47 | 1004.7 |
| 20260504223321 | 80 | 131 | 8.0 | 13.0 | 0.00 | 0.00 | 0.00 | 47 | 1004.6 |
| 20260504222818 | 80 | 130 | 5.0 | 7.0 | 0.00 | 0.00 | 0.00 | 47 | 1004.6 |
| 20260504222315 | 80 | 235 | 2.0 | 3.0 | 0.00 | 0.00 | 0.00 | 48 | 1004.5 |
| 20260504221814 | 80 | 231 | 5.0 | 7.0 | 0.00 | 0.00 | 0.00 | 46 | 1004.8 |
| 20260504221310 | 80 | 192 | 9.0 | 13.0 | 0.00 | 0.00 | 0.00 | 46 | 1004.7 |
| 20260504220807 | 80 | 284 | 9.0 | 14.0 | 0.00 | 0.00 | 0.00 | 47 | 1004.6 |
| 20260504220304 | 81 | 212 | 10.0 | 15.0 | 0.00 | 0.00 | 0.00 | 46 | 1004.7 |
| 20260504215801 | 81 | 213 | 5.0 | 9.0 | 0.00 | 0.00 | 0.00 | 45 | 1004.5 |
| 20260504215257 | 82 | 197 | 6.0 | 8.0 | 0.00 | 0.00 | 0.00 | 45 | 1004.9 |
| 20260504214753 | 82 | 229 | 4.0 | 6.0 | 0.00 | 0.00 | 0.00 | 44 | 1004.9 |
| 20260504214250 | 82 | 208 | 2.0 | 4.0 | 0.00 | 0.00 | 0.00 | 44 | 1004.9 |
| 20260504213747 | 82 | 193 | 6.0 | 7.0 | 0.00 | 0.00 | 0.00 | 44 | 1004.9 |
| 20260504213243 | 82 | 156 | 7.0 | 11.0 | 0.00 | 0.00 | 0.00 | 44 | 1004.9 |
| 20260504212740 | 81 | 350 | 9.0 | 11.0 | 0.00 | 0.00 | 0.00 | 43 | 1004.7 |
| 20260504212237 | 81 | 254 | 2.0 | 4.0 | 0.00 | 0.00 | 0.00 | 44 | 1004.9 |
| 20260504211734 | 81 | 141 | 5.0 | 6.0 | 0.00 | 0.00 | 0.00 | 44 | 1004.9 |
| 20260504211230 | 81 | 215 | 4.0 | 6.0 | 0.00 | 0.00 | 0.00 | 44 | 1005.0 |
| 20260504210728 | 81 | 223 | 10.0 | 17.0 | 0.00 | 0.00 | 0.00 | 43 | 1004.9 |
| 20260504210225 | 82 | 172 | 10.0 | 16.0 | 0.00 | 0.00 | 0.00 | 43 | 1005.0 |
| 20260504205722 | 82 | 190 | 7.0 | 8.0 | 0.00 | 0.00 | 0.00 | 43 | 1005.2 |
| 20260504205220 | 81 | 195 | 6.0 | 8.0 | 0.00 | 0.00 | 0.00 | 45 | 1005.2 |
| 20260504204718 | 81 | 183 | 10.0 | 13.0 | 0.00 | 0.00 | 0.00 | 44 | 1005.4 |
| 20260504204216 | 82 | 165 | 13.0 | 18.0 | 0.00 | 0.00 | 0.00 | 43 | 1005.4 |
| 20260504203715 | 82 | 197 | 5.0 | 8.0 | 0.00 | 0.00 | 0.00 | 44 | 1005.3 |
| 20260504203212 | 82 | 211 | 9.0 | 10.0 | 0.00 | 0.00 | 0.00 | 44 | 1005.5 |
| 20260504202712 | 81 | 181 | 9.0 | 11.0 | 0.00 | 0.00 | 0.00 | 44 | 1005.6 |
| 20260504202209 | 81 | 197 | 5.0 | 8.0 | 0.00 | 0.00 | 0.00 | 44 | 1005.6 |
| 20260504201706 | 82 | 181 | 4.0 | 8.0 | 0.00 | 0.00 | 0.00 | 45 | 1005.4 |
| 20260504201203 | 81 | 189 | 8.0 | 10.0 | 0.00 | 0.00 | 0.00 | 45 | 1005.5 |
| 20260504200701 | 80 | 191 | 10.0 | 16.0 | 0.00 | 0.00 | 0.00 | 45 | 1005.9 |
| 20260504200152 | 81 | 215 | 9.0 | 13.0 | 0.00 | 0.00 | 0.00 | 44 | 1005.7 |
| 20260504195648 | 82 | 177 | 13.0 | 18.0 | 0.00 | 0.00 | 0.00 | 43 | 1005.7 |
| 20260504195144 | 81 | 207 | 3.0 | 6.0 | 0.00 | 0.00 | 0.00 | 46 | 1005.8 |
| 20260504194641 | 82 | 181 | 10.0 | 13.0 | 0.00 | 0.00 | 0.00 | 43 | 1006.0 |
| 20260504194137 | 81 | 286 | 3.0 | 3.0 | 0.00 | 0.00 | 0.00 | 45 | 1006.0 |
| 20260504193634 | 81 | 180 | 9.0 | 13.0 | 0.00 | 0.00 | 0.00 | 44 | 1006.1 |
| 20260504193132 | 80 | 70 | 4.0 | 8.0 | 0.00 | 0.00 | 0.00 | 46 | 1006.1 |
| 20260504192629 | 81 | 196 | 9.0 | 13.0 | 0.00 | 0.00 | 0.00 | 45 | 1006.2 |
| 20260504192127 | 80 | 227 | 4.0 | 6.0 | 0.00 | 0.00 | 0.00 | 45 | 1006.5 |
| 20260504191626 | 81 | 183 | 9.0 | 13.0 | 0.00 | 0.00 | 0.00 | 44 | 1006.5 |
| 20260504191121 | 81 | 2 | 1.0 | 2.0 | 0.00 | 0.00 | 0.00 | 48 | 1006.5 |
| 20260504190618 | 80 | 168 | 4.0 | 7.0 | 0.00 | 0.00 | 0.00 | 45 | 1006.5 |
| 20260504190115 | 80 | 148 | 10.0 | 15.0 | 0.00 | 0.00 | 0.00 | 45 | 1006.3 |
| 20260504185611 | 79 | 178 | 6.0 | 9.0 | 0.00 | 0.00 | 0.00 | 45 | 1006.4 |
| 20260504185108 | 80 | 224 | 13.0 | 22.0 | 0.00 | 0.00 | 0.00 | 44 | 1006.5 |
| 20260504184603 | 79 | 136 | 5.0 | 8.0 | 0.00 | 0.00 | 0.00 | 45 | 1006.3 |
| 20260504184058 | 79 | 158 | 6.0 | 10.0 | 0.00 | 0.00 | 0.00 | 45 | 1006.3 |
| 20260504183556 | 79 | 249 | 10.0 | 15.0 | 0.00 | 0.00 | 0.00 | 44 | 1006.4 |